TimeMDT,TemperatureF,Dew PointF,Humidity,Sea Level PressureIn,VisibilityMPH,Wind Direction,Wind SpeedMPH,Gust SpeedMPH,PrecipitationIn,Events,Conditions,WindDirDegrees,DateUTC
5:50 AM,70,63,71,29.83,2,South,8.9,,,,,180,2013-06-22 11:50:00
6:03 AM,66.2,59.0,78,29.92,10.0,South,12.7,-,N/A,,Clear,180,2013-06-22 12:03:00
6:40 AM,66.2,59.0,78,29.84,10.0,South,12.7,-,N/A,,Clear,180,2013-06-22 12:40:00
7:40 AM,66.2,60.8,83,29.85,10.0,South,6.9,-,N/A,,Clear,180,2013-06-22 13:40:00
8:41 AM,73.4,55.4,53,29.94,12.0,South,10.4,-,N/A,,Clear,180,2013-06-22 14:41:00
8:50 AM,79,61,44,29.85,12,South,6.7,,,,,180,2013-06-22 14:50:00
9:43 AM,82.4,51.8,35,29.86,12.0,Calm,Calm,-,N/A,,Clear,0,2013-06-22 15:43:00
10:40 AM,89.6,42.8,20,29.85,12.0,Calm,Calm,-,N/A,,Clear,0,2013-06-22 16:40:00
11:53 AM,89.6,42.8,20,29.94,12.0,North,9.2,-,N/A,,Clear,360,2013-06-22 17:53:00
12:00 PM,92,62,27,,19,South,4.5,,,,,180,2013-06-22 18:00:00
12:40 PM,91.4,41.0,17,29.84,12.0,NNW,9.2,-,N/A,,Clear,340,2013-06-22 18:40:00
1:44 PM,89.6,50.0,26,29.82,12.0,North,12.7,-,N/A,,Clear,350,2013-06-22 19:44:00
2:48 PM,91.4,48.2,23,29.93,10.0,North,11.5,-,N/A,,Clear,360,2013-06-22 20:48:00
2:50 PM,94,69,35,29.80,19,NW,8.9,,,,,320,2013-06-22 20:50:00
3:43 PM,91.4,57.2,31,29.79,10.0,NW,9.2,-,N/A,,Clear,310,2013-06-22 21:43:00
4:47 PM,95.0,50.0,22,29.76,10.0,SSW,16.1,-,N/A,,Clear,200,2013-06-22 22:47:00
5:50 PM,95,65,28,29.76,19,South,11.2,,,,,180,2013-06-22 23:50:00
5:53 PM,87.8,50.0,27,29.88,10.0,South,16.1,-,N/A,,Clear,190,2013-06-22 23:53:00
6:48 PM,86.0,50.0,29,29.77,10.0,SSW,16.1,-,N/A,,Clear,210,2013-06-23 00:48:00
7:44 PM,82.4,50.0,32,29.79,10.0,SSW,11.5,-,N/A,,Clear,200,2013-06-23 01:44:00
8:50 PM,82,63,43,29.83,2,South,8.9,,,,,180,2013-06-23 02:50:00
8:52 PM,77.0,57.2,50,29.96,10.0,SSW,6.9,-,N/A,,Clear,210,2013-06-23 02:52:00
9:44 PM,75.2,57.2,53,29.87,10.0,South,11.5,-,N/A,,Clear,190,2013-06-23 03:44:00
10:50 PM,73.4,57.2,57,29.87,10.0,South,9.2,-,N/A,,Clear,190,2013-06-23 04:50:00